TimeCST,TemperatureF,Dew PointF,Humidity,Sea Level PressureIn,VisibilityMPH,Wind Direction,Wind SpeedMPH,Gust SpeedMPH,PrecipitationIn,Events,Conditions,WindDirDegrees,DateUTC
7:35 AM,53.6,48.2,82,30.12,1.8,SE,6.9,-,N/A,,Overcast,140,2012-12-06 13:35:00
7:55 AM,53.6,48.2,82,30.12,1.5,SE,6.9,-,N/A,,Overcast,140,2012-12-06 13:55:00
8:15 AM,55.4,48.2,77,30.12,1.2,SE,5.8,-,N/A,,Overcast,140,2012-12-06 14:15:00
8:35 AM,55.4,48.2,77,30.12,1.2,SE,5.8,-,N/A,,Overcast,140,2012-12-06 14:35:00
8:55 AM,57.2,50.0,77,30.12,1.5,SE,8.1,-,N/A,,Overcast,140,2012-12-06 14:55:00
9:15 AM,59.0,50.0,72,30.12,2.0,SSE,6.9,-,N/A,,Mostly Cloudy,150,2012-12-06 15:15:00
9:55 AM,60.8,50.0,68,30.12,9.0,SSE,11.5,-,N/A,,Partly Cloudy,150,2012-12-06 15:55:00
10:15 AM,62.6,50.0,63,30.11,10.0,SSE,10.4,-,N/A,,Partly Cloudy,150,2012-12-06 16:15:00
10:35 AM,62.6,50.0,63,30.11,10.0,South,9.2,-,N/A,,Clear,170,2012-12-06 16:35:00
10:55 AM,64.4,50.0,59,30.10,10.0,SSE,9.2,-,N/A,,Partly Cloudy,150,2012-12-06 16:55:00
11:15 AM,64.4,50.0,59,30.10,10.0,SSE,6.9,-,N/A,,Mostly Cloudy,150,2012-12-06 17:15:00
11:35 AM,64.4,50.0,59,30.09,10.0,SSE,8.1,-,N/A,,Mostly Cloudy,150,2012-12-06 17:35:00
11:55 AM,64.4,50.0,59,30.08,10.0,South,9.2,-,N/A,,Mostly Cloudy,170,2012-12-06 17:55:00
12:15 PM,64.4,50.0,59,30.07,10.0,South,9.2,-,N/A,,Mostly Cloudy,180,2012-12-06 18:15:00
12:35 PM,64.4,50.0,59,30.06,10.0,South,8.1,-,N/A,,Mostly Cloudy,190,2012-12-06 18:35:00
12:55 PM,64.4,50.0,59,30.06,10.0,South,8.1,-,N/A,,Mostly Cloudy,190,2012-12-06 18:55:00
1:15 PM,66.2,50.0,56,30.05,10.0,South,9.2,-,N/A,,Scattered Clouds,170,2012-12-06 19:15:00
1:35 PM,66.2,50.0,56,30.04,10.0,South,9.2,-,N/A,,Mostly Cloudy,170,2012-12-06 19:35:00
1:55 PM,66.2,50.0,56,30.03,10.0,South,6.9,-,N/A,,Mostly Cloudy,180,2012-12-06 19:55:00
2:15 PM,66.2,48.2,52,30.03,10.0,South,10.4,-,N/A,,Scattered Clouds,170,2012-12-06 20:15:00
2:35 PM,66.2,48.2,52,30.03,10.0,South,6.9,-,N/A,,Mostly Cloudy,170,2012-12-06 20:35:00
2:55 PM,66.2,48.2,52,30.03,10.0,South,8.1,-,N/A,,Mostly Cloudy,170,2012-12-06 20:55:00
3:15 PM,66.2,48.2,52,30.03,10.0,South,8.1,-,N/A,,Mostly Cloudy,180,2012-12-06 21:15:00
3:35 PM,66.2,48.2,52,30.03,10.0,South,6.9,-,N/A,,Overcast,180,2012-12-06 21:35:00
3:55 PM,64.4,48.2,56,30.03,10.0,SSE,8.1,-,N/A,,Mostly Cloudy,150,2012-12-06 21:55:00
4:15 PM,64.4,48.2,56,30.04,10.0,SSE,6.9,-,N/A,,Mostly Cloudy,160,2012-12-06 22:15:00
4:35 PM,62.6,48.2,59,30.04,10.0,SSE,6.9,-,N/A,,Mostly Cloudy,160,2012-12-06 22:35:00
4:55 PM,62.6,48.2,59,30.04,10.0,SSE,5.8,-,N/A,,Overcast,160,2012-12-06 22:55:00
5:15 PM,62.6,48.2,59,30.05,10.0,SSE,5.8,-,N/A,,Overcast,150,2012-12-06 23:15:00
5:35 PM,60.8,48.2,63,30.05,10.0,SSE,6.9,-,N/A,,Overcast,150,2012-12-06 23:35:00
5:55 PM,60.8,48.2,63,30.05,10.0,SSE,6.9,-,N/A,,Overcast,150,2012-12-06 23:55:00
6:15 PM,60.8,46.4,59,30.05,10.0,SSE,6.9,-,N/A,,Mostly Cloudy,160,2012-12-07 00:15:00
6:35 PM,60.8,46.4,59,30.05,10.0,SE,6.9,-,N/A,,Scattered Clouds,140,2012-12-07 00:35:00
6:55 PM,59.0,46.4,63,30.05,10.0,SE,5.8,-,N/A,,Partly Cloudy,140,2012-12-07 00:55:00
7:15 PM,59.0,46.4,63,30.05,10.0,SE,3.5,-,N/A,,Mostly Cloudy,130,2012-12-07 01:15:00
7:35 PM,57.2,46.4,67,30.06,10.0,ESE,3.5,-,N/A,,Scattered Clouds,120,2012-12-07 01:35:00
7:55 PM,57.2,46.4,67,30.06,10.0,SE,5.8,-,N/A,,Partly Cloudy,130,2012-12-07 01:55:00
8:35 PM,57.2,44.6,63,30.05,10.0,SE,5.8,-,N/A,,Clear,130,2012-12-07 02:35:00
8:55 PM,57.2,44.6,63,30.06,10.0,SE,6.9,-,N/A,,Scattered Clouds,130,2012-12-07 02:55:00
9:15 PM,55.4,44.6,67,30.05,10.0,SE,6.9,-,N/A,,Partly Cloudy,140,2012-12-07 03:15:00
9:35 PM,55.4,44.6,67,30.05,10.0,SE,6.9,-,N/A,,Mostly Cloudy,140,2012-12-07 03:35:00
9:55 PM,55.4,44.6,67,30.04,10.0,SE,6.9,-,N/A,,Overcast,140,2012-12-07 03:55:00
10:15 PM,55.4,44.6,67,30.05,10.0,SE,5.8,-,N/A,,Overcast,130,2012-12-07 04:15:00
10:35 PM,55.4,44.6,67,30.05,10.0,SE,6.9,-,N/A,,Overcast,140,2012-12-07 04:35:00
10:55 PM,55.4,44.6,67,30.05,10.0,SE,9.2,-,N/A,,Overcast,140,2012-12-07 04:55:00
11:15 PM,55.4,44.6,67,30.05,10.0,SSE,6.9,-,N/A,,Overcast,150,2012-12-07 05:15:00
11:35 PM,55.4,44.6,67,30.04,10.0,SE,8.1,-,N/A,,Mostly Cloudy,140,2012-12-07 05:35:00
11:55 PM,53.6,44.6,72,30.04,10.0,SSE,6.9,-,N/A,,Partly Cloudy,150,2012-12-07 05:55:00